[[{"header":{"parameterUnit":"m.s-1","parameterCategory":1,"la1":30.2991,"la2":30.254,"lo1":-89.0895,"lo2":-89.0444,"dy":0.0017,"dx":0.0017,"nx":28,"ny":28,"refTime":"2024-10-17T09:00:00:Z","depth":0,"parameterNumber":2,"parameterNumberName":"U-component_of_WINDS"},"data":[0,0,0,0,0,0,0,0,0,0,0,0,0,0,0,0,0,0,0,0,0,0,0,0,0,0,0,0,0,0,0,0,0,0,0,0,0,0,0,0,0,0,0,0,0,0,0,0,0,0,0,0,0,0,0,0,0,0,-6.2337,-6.2338,0,-6.2347,-6.2347,-6.2347,-6.2191,-6.2186,-6.2182,-6.2178,-6.2187,-6.2191,-6.2195,0,0,0,0,0,0,0,0,0,0,0,0,0,-6.2183,-6.2187,-6.2337,-6.2338,-6.2338,-6.2347,-6.2347,-6.2347,-6.2191,-6.2186,-6.2181,-6.2176,-6.2186,-6.2191,-6.2196,0,0,0,0,0,0,0,0,0,0,0,0,0,-6.2227,-6.2188,-6.2337,-6.2261,-6.2254,-6.2347,-6.2347,-6.2347,-6.2193,-6.2186,-6.218,-6.2174,-6.2184,-6.219,-6.2196,-6.2362,0,0,-6.2216,-6.2218,0,0,0,0,0,0,0,0,-6.2225,-6.2233,-6.2272,-6.2266,-6.2259,-6.2261,-6.2296,-6.2352,-6.2194,-6.2216,-6.2178,-6.2171,-6.2217,-6.222,-6.2236,-6.2363,-6.2363,-6.2216,-6.222,-6.2223,-6.2224,0,0,0,0,0,0,0,-6.2222,-6.2232,-6.2341,-6.2273,-6.2265,-6.2226,-6.2225,-6.2306,-6.2252,-6.2214,-6.2202,-6.2206,-6.2212,-6.223,-6.2235,-6.2363,-6.2216,-6.2221,-6.2225,-6.2228,-6.2627,-6.2634,0,0,0,0,0,0,-6.223,-6.223,-6.2341,-6.2341,-6.2226,-6.2234,-6.2233,-6.2267,-6.2251,-6.2242,-6.2211,-6.2198,-6.2222,-6.2228,-6.2234,-6.2428,-6.2223,-6.2228,-6.2232,-6.262,-6.2629,-6.2636,0,0,0,0,0,0,-6.2227,-6.2241,-6.234,-6.2283,-6.2292,-6.2243,-6.2283,-6.227,-6.2288,-6.2249,-6.2238,-6.2239,-6.2218,-6.2226,-6.2332,-6.2426,-6.2231,-6.2237,-6.2612,-6.2623,-6.2632,-6.2816,0,0,0,0,0,0,-6.2223,-6.2241,-6.2304,-6.2285,-6.2296,-6.2438,-6.2288,-6.2275,-6.23,-6.2283,-6.2272,-6.2265,-6.2213,-6.2323,-6.2338,-6.2431,-6.2242,-6.2604,-6.2617,-6.2629,-6.2801,-6.2831,-6.2857,0,0,0,0,0,-6.2218,-6.2354,-6.2308,-6.2322,-6.2374,-6.2444,-6.245,-6.2388,-6.2308,-6.237,-6.2345,-6.2265,-6.2414,-6.2336,-6.2351,-6.2447,-6.2597,-6.2613,-6.2628,-6.2789,-6.2825,-6.2856,0,0,0,0,0,0,-6.2384,-6.235,-6.2298,-6.2433,-6.2443,-6.2417,-6.2494,-6.2429,-6.2461,-6.2445,-6.2366,-6.2365,-6.2485,-6.2476,-6.239,-6.2607,-6.2491,-6.251,-6.2608,-6.2642,-6.267,-6.2669,-6.2247,0,0,0,0,0,-6.2436,-6.2497,-6.2464,-6.2586,-6.2594,-6.2544,-6.2572,-6.2524,-6.2531,-6.2534,-6.2516,-6.2526,-6.2574,-6.2608,-6.265,-6.2799,-6.2795,-6.2873,-6.2901,-6.2924,-6.2941,-6.302,-6.3054,-6.2687,-6.2686,-6.2686,0,0,-6.2545,-6.2534,-6.2577,-6.2619,-6.2621,-6.2685,-6.2548,-6.2621,-6.2668,-6.2545,-6.2644,-6.2632,-6.2637,-6.2766,-6.2822,-6.2763,-6.3042,-6.2944,-6.2962,-6.2967,-6.3039,-6.3074,-6.3105,-6.2697,-6.2695,-6.2694,0,0,-6.2775,-6.2773,-6.2874,-6.2879,-6.2884,-6.2851,-6.2876,-6.2861,-6.2848,-6.2947,-6.2856,-6.291,-6.2996,-6.3003,-6.3018,-6.3254,-6.3182,-6.327,-6.3415,-6.3492,-6.3521,-6.3547,-6.363,-6.3662,-6.3287,-6.3288,-6.3288,0,-6.2908,-6.3002,-6.2934,-6.3014,-6.3036,-6.2928,-6.303,-6.3038,-6.3057,-6.3075,-6.3008,-6.3114,-6.311,-6.3239,-6.3297,-6.3313,-6.3338,-6.327,-6.3523,-6.3547,-6.357,-6.3649,-6.3681,-6.3299,-6.3297,-6.3296,-6.3295,0,-6.3166,-6.3232,-6.3313,-6.3335,-6.3366,-6.3457,-6.3403,-6.3442,-6.3392,-6.3366,-6.3468,-6.346,-6.3499,-6.3526,-6.3478,-6.3649,-6.3612,-6.3536,-6.3418,-6.3617,-6.369,-6.372,-6.3314,-6.331,-6.3307,-6.3304,0,0,-6.3499,-6.3484,-6.3515,-6.3524,-6.3522,-6.3572,-6.3658,-6.3697,-6.3732,-6.375,-6.382,-6.3896,-6.3825,-6.3843,-6.3794,-6.3863,-6.405,-6.3777,-6.3776,-6.3828,-6.4238,-6.4295,-6.4332,-6.4002,-6.4008,-6.4012,-6.4238,0,-6.3722,-6.3869,-6.3812,-6.3963,-6.4023,-6.3923,-6.3998,-6.4006,-6.3984,-6.4031,-6.4006,-6.4061,-6.3964,-6.3974,-6.4038,-6.4014,-6.4131,-6.3997,-6.4066,-6.407,-6.4068,-6.437,-6.443,-6.4643,-6.4266,-6.4271,-6.4274,0,-6.4002,-6.4032,-6.419,-6.4178,-6.4202,-6.427,-6.4302,-6.4349,-6.4356,-6.4335,-6.4356,-6.4293,-6.4376,-6.426,-6.4374,-6.4284,-6.431,-6.4303,-6.4309,-6.4313,-6.4183,-6.4381,-6.4709,-6.4741,-6.4318,-6.4315,-6.4312,0,-6.4229,-6.4308,-6.4413,-6.4424,-6.4413,-6.4464,-6.4462,-6.4462,-6.449,-6.4518,-6.4535,-6.4573,-6.4593,-6.4623,-6.4572,-6.4492,-6.4694,-6.4573,-6.4679,-6.4681,-6.4725,-6.4723,-6.5062,-6.4743,-6.4743,-6.4742,-6.4742,0,-6.4484,-6.4584,-6.4515,-6.4579,-6.4689,-6.4623,-6.4733,-6.4719,-6.4721,-6.4781,-6.4697,-6.4755,-6.4684,-6.4735,-6.4696,-6.4797,-6.4807,-6.4792,-6.478,-6.4799,-6.4801,-6.4814,-6.4797,-6.4751,-6.4749,-6.4747,-6.4746,0,-6.4755,-6.4713,-6.482,-6.4803,-6.48,-6.4882,-6.4866,-6.4925,-6.4898,-6.4975,-6.4989,-6.4946,-6.5002,-6.4955,-6.5009,-6.4983,-6.5117,-6.5084,-6.5115,-6.5105,-6.5213,-6.5204,-6.5572,-6.5617,-6.5271,-6.5274,-6.5277,0,-6.492,-6.4995,-6.4986,-6.5021,-6.5024,-6.5081,-6.5109,-6.5047,-6.508,-6.5094,-6.5151,-6.52,-6.5236,-6.5331,-6.5304,-6.5346,-6.5313,-6.5439,-6.5318,-6.5335,-6.5314,-6.531,-6.5317,-6.5463,-6.5468,-6.5471,-6.5474,0,-6.5218,-6.5193,-6.5237,-6.5275,-6.5311,-6.5337,-6.5357,-6.539,-6.5327,-6.5368,-6.5425,-6.5453,-6.5509,-6.5559,-6.5592,-6.5589,-6.5522,-6.5512,-6.5539,-6.5558,-6.5573,-6.5566,-6.5181,-6.5504,-6.5501,-6.5498,-6.5497,-6.5496,-6.544,-6.5502,-6.5506,-6.5558,-6.5567,-6.5587,-6.5642,-6.5622,-6.5669,-6.571,-6.5671,-6.574,-6.5745,-6.5782,-6.5788,-6.5841,-6.5788,-6.5827,-6.5836,-6.5847,-6.5862,-6.5566,-6.5847,-6.5846,-6.5845,-6.5844,-6.5844,0,-6.5732,-6.573,-6.5779,-6.581,-6.5851,-6.5785,-6.5804,-6.5842,-6.5904,-6.5915,-6.5953,-6.6019,-6.6067,-6.6046,-6.6088,-6.6135,-6.6105,-6.6148,-6.6143,-6.6144,-6.5907,-6.588,-6.6172,-6.6172,-6.6171,-6.6171,-6.6171,-6.6171,-6.5889,-6.5991,-6.5968,-6.6073,-6.607,-6.6137,-6.6154,-6.6172,-6.6181,-6.6259,-6.6299,-6.6285,-6.6283,-6.6325,-6.6366,-6.6359,-6.6378,-6.6432,-6.6414,-6.6193,-6.616,-6.613,-6.6103,-6.6437,-6.6438,-6.6646,-6.6648,-6.6649]},{"header":{"parameterUnit":"m.s-1","parameterCategory":1,"la1":30.2991,"la2":30.254,"lo1":-89.0895,"lo2":-89.0444,"dy":0.0017,"dx":0.0017,"nx":28,"ny":28,"refTime":"2024-10-17T09:00:00:Z","depth":0,"parameterNumber":3,"parameterNumberName":"V-component_of_WINDS"},"data":[0,0,0,0,0,0,0,0,0,0,0,0,0,0,0,0,0,0,0,0,0,0,0,0,0,0,0,0,0,0,0,0,0,0,0,0,0,0,0,0,0,0,0,0,0,0,0,0,0,0,0,0,0,0,0,0,0,0,-1.778,-1.778,0,-1.7781,-1.7781,-1.7781,-1.7786,-1.7786,-1.7787,-1.7787,-1.7786,-1.7785,-1.7785,0,0,0,0,0,0,0,0,0,0,0,0,0,-1.7781,-1.7781,-1.778,-1.778,-1.778,-1.7781,-1.7781,-1.7781,-1.7786,-1.7786,-1.7787,-1.7787,-1.7786,-1.7785,-1.7785,0,0,0,0,0,0,0,0,0,0,0,0,0,-1.7781,-1.7781,-1.778,-1.7783,-1.7783,-1.7781,-1.7781,-1.7781,-1.7786,-1.7786,-1.7787,-1.7787,-1.7786,-1.7786,-1.7785,-1.778,0,0,-1.7785,-1.7784,0,0,0,0,0,0,0,0,-1.7781,-1.7781,-1.7783,-1.7783,-1.7783,-1.7784,-1.7781,-1.778,-1.7786,-1.7785,-1.7787,-1.7787,-1.7785,-1.7785,-1.7784,-1.778,-1.778,-1.7785,-1.7784,-1.7784,-1.7784,0,0,0,0,0,0,0,-1.7781,-1.7781,-1.7781,-1.7783,-1.7783,-1.7783,-1.7784,-1.7781,-1.7784,-1.7785,-1.7786,-1.7786,-1.7785,-1.7784,-1.7784,-1.7779,-1.7785,-1.7784,-1.7784,-1.7784,-1.7767,-1.7766,0,0,0,0,0,0,-1.7781,-1.7781,-1.7781,-1.7781,-1.7783,-1.7783,-1.7783,-1.7783,-1.7784,-1.7784,-1.7786,-1.7786,-1.7785,-1.7784,-1.7784,-1.7775,-1.7784,-1.7784,-1.7784,-1.7767,-1.7767,-1.7766,0,0,0,0,0,0,-1.7781,-1.7781,-1.7781,-1.7781,-1.7781,-1.7783,-1.7783,-1.7783,-1.7783,-1.7784,-1.7784,-1.7785,-1.7785,-1.7785,-1.778,-1.7776,-1.7784,-1.7784,-1.7767,-1.7767,-1.7766,-1.7759,0,0,0,0,0,0,-1.7781,-1.7781,-1.778,-1.7781,-1.7781,-1.7778,-1.7783,-1.7783,-1.7783,-1.7783,-1.7783,-1.7783,-1.7785,-1.778,-1.778,-1.7775,-1.7784,-1.7768,-1.7767,-1.7767,-1.776,-1.7759,-1.7757,0,0,0,0,0,-1.7781,-1.7778,-1.778,-1.7779,-1.778,-1.7777,-1.7777,-1.778,-1.7782,-1.778,-1.778,-1.7783,-1.7776,-1.778,-1.7779,-1.7775,-1.7768,-1.7767,-1.7767,-1.776,-1.7759,-1.7757,0,0,0,0,0,0,-1.7776,-1.7778,-1.778,-1.7778,-1.7777,-1.7778,-1.7776,-1.7778,-1.7777,-1.7777,-1.778,-1.7779,-1.7774,-1.7774,-1.7778,-1.7768,-1.7772,-1.7772,-1.7768,-1.7766,-1.7765,-1.7765,-1.7783,0,0,0,0,0,-1.7775,-1.7774,-1.7775,-1.7773,-1.7773,-1.7774,-1.7774,-1.7775,-1.7775,-1.7774,-1.7774,-1.7773,-1.777,-1.7768,-1.7766,-1.776,-1.7759,-1.7756,-1.7755,-1.7754,-1.7753,-1.7747,-1.7745,-1.7764,-1.7764,-1.7764,0,0,-1.7773,-1.7773,-1.7773,-1.7772,-1.7772,-1.7769,-1.7774,-1.7772,-1.777,-1.7774,-1.7769,-1.7769,-1.7767,-1.7761,-1.7759,-1.7761,-1.7747,-1.7753,-1.7752,-1.7752,-1.7746,-1.7744,-1.7742,-1.7764,-1.7764,-1.7764,0,0,-1.7767,-1.7768,-1.7765,-1.7764,-1.7764,-1.7764,-1.7763,-1.7764,-1.7763,-1.7759,-1.7761,-1.7758,-1.7754,-1.7751,-1.775,-1.774,-1.7741,-1.7739,-1.7732,-1.7726,-1.7725,-1.7723,-1.7717,-1.7716,-1.7738,-1.7738,-1.7738,0,-1.7764,-1.7761,-1.7763,-1.776,-1.7758,-1.7762,-1.7757,-1.7757,-1.7755,-1.7753,-1.7756,-1.7749,-1.7748,-1.774,-1.7738,-1.7737,-1.7734,-1.7739,-1.7725,-1.7723,-1.7722,-1.7717,-1.7715,-1.7737,-1.7737,-1.7737,-1.7738,0,-1.7756,-1.7753,-1.7751,-1.7749,-1.7747,-1.7743,-1.7744,-1.7741,-1.7742,-1.7742,-1.7735,-1.7735,-1.7731,-1.7729,-1.7731,-1.772,-1.7722,-1.7725,-1.7729,-1.772,-1.7714,-1.7713,-1.7737,-1.7737,-1.7737,-1.7737,0,0,-1.7749,-1.7746,-1.7745,-1.7743,-1.7741,-1.7739,-1.7734,-1.773,-1.7727,-1.7725,-1.772,-1.7715,-1.7716,-1.7715,-1.7715,-1.771,-1.7699,-1.7713,-1.7713,-1.7709,-1.7685,-1.7682,-1.7679,-1.77,-1.77,-1.77,-1.7684,0,-1.7742,-1.7734,-1.7735,-1.7727,-1.7723,-1.7725,-1.772,-1.7718,-1.7717,-1.7712,-1.7711,-1.7706,-1.771,-1.7708,-1.7703,-1.7702,-1.7694,-1.7703,-1.7693,-1.7693,-1.7693,-1.7677,-1.7675,-1.766,-1.7683,-1.7682,-1.7682,0,-1.7733,-1.773,-1.7722,-1.7717,-1.7716,-1.7712,-1.7707,-1.7703,-1.7699,-1.7699,-1.7695,-1.7696,-1.7689,-1.7694,-1.7683,-1.7689,-1.7685,-1.7683,-1.7682,-1.7681,-1.7686,-1.7674,-1.7656,-1.7653,-1.7679,-1.7679,-1.768,0,-1.7726,-1.772,-1.7714,-1.7712,-1.7708,-1.7704,-1.7702,-1.7698,-1.7695,-1.769,-1.7687,-1.7682,-1.7679,-1.7673,-1.7672,-1.7676,-1.766,-1.7665,-1.7657,-1.7657,-1.7654,-1.7654,-1.7634,-1.7653,-1.7653,-1.7653,-1.7653,0,-1.7718,-1.7712,-1.771,-1.7706,-1.7699,-1.7699,-1.7691,-1.7689,-1.7685,-1.7679,-1.768,-1.7674,-1.7673,-1.7667,-1.7665,-1.7655,-1.7654,-1.7651,-1.7651,-1.7651,-1.7651,-1.7648,-1.7648,-1.7653,-1.7653,-1.7653,-1.7653,0,-1.771,-1.7709,-1.7701,-1.7697,-1.7695,-1.769,-1.7686,-1.768,-1.7678,-1.7671,-1.7669,-1.7666,-1.7657,-1.7655,-1.7646,-1.7645,-1.7632,-1.7633,-1.7633,-1.7633,-1.7624,-1.7624,-1.76,-1.7596,-1.762,-1.762,-1.7619,0,-1.7704,-1.77,-1.7694,-1.769,-1.7688,-1.7682,-1.7678,-1.7676,-1.7672,-1.7665,-1.766,-1.7652,-1.7646,-1.7632,-1.7628,-1.762,-1.762,-1.7612,-1.7619,-1.7617,-1.7617,-1.7617,-1.7615,-1.761,-1.761,-1.761,-1.761,0,-1.7694,-1.7692,-1.7687,-1.768,-1.7675,-1.767,-1.7665,-1.7661,-1.7659,-1.7653,-1.7645,-1.7639,-1.7628,-1.7619,-1.7611,-1.7607,-1.7607,-1.7608,-1.7605,-1.7604,-1.7604,-1.7602,-1.7628,-1.7608,-1.7608,-1.7609,-1.7609,-1.7609,-1.7686,-1.7681,-1.7675,-1.7668,-1.7664,-1.7658,-1.7652,-1.7648,-1.7641,-1.7632,-1.7632,-1.7622,-1.7614,-1.7602,-1.7598,-1.7589,-1.7591,-1.7588,-1.7587,-1.7586,-1.7584,-1.7606,-1.7588,-1.7588,-1.7588,-1.7588,-1.7588,0,-1.7674,-1.767,-1.7663,-1.7655,-1.7649,-1.7649,-1.7642,-1.7637,-1.7628,-1.7621,-1.7614,-1.7603,-1.7593,-1.7587,-1.7577,-1.7571,-1.757,-1.7568,-1.7568,-1.7566,-1.7584,-1.7586,-1.7568,-1.7568,-1.7568,-1.7568,-1.7568,-1.7568,-1.7667,-1.7658,-1.7655,-1.7642,-1.7638,-1.7628,-1.7623,-1.7617,-1.7612,-1.7599,-1.759,-1.7587,-1.7579,-1.7568,-1.7559,-1.7557,-1.7552,-1.7549,-1.7548,-1.7564,-1.7566,-1.7568,-1.757,-1.7549,-1.7549,-1.7531,-1.7531,-1.7531]}]]